Regional Weather Roundup
Issued by NWS

Home | Current Version | Previous Version | Text Only | Print | Product List | Glossary On
Versions: 1 2 3 4 5 6 7 8 9 10 11 12 13 14 15 16 17 18 19 20 21 22 23 24 25 26 27 28 29 30 31 32 33 34 35 36 37 38 39 40 41 42 43 44 45 46 47 48 49 50
000
ASUS43 KMKX 231400
RWRWI

WISCONSIN REGIONAL WEATHER ROUNDUP
NATIONAL WEATHER SERVICE MILWAUKEE/SULLIVAN WI
800 AM CST TUE JAN 23 2018

NOTE: "FAIR" INDICATES FEW OR NO CLOUDS BELOW 12,000 FEET WITH NO
SIGNIFICANT WEATHER AND/OR OBSTRUCTIONS TO VISIBILITY.

WIZ001-002-006>008-014>016-023>028-231500-
NORTHWEST WISCONSIN

CITY           SKY/WX    TMP DP  RH WIND       PRES   REMARKS
SUPERIOR ARPT  CLOUDY    10   3  75 NW8       30.02R WCI  -3
ASHLAND        CLOUDY    18  14  84 N12       29.97R WCI   5
HAYWARD        CLOUDY    18  15  88 N8        29.92R WCI   8
SIREN          CLOUDY    15   9  76 N6        29.98R WCI   6
CUMBERLAND     CLOUDY    18  12  79 N16       29.91R WCI   3
RICE LAKE      CLOUDY    18  15  87 NW13      29.93R WCI   5
CHETEK         CLOUDY    19  15  87 N8G17     29.90R WCI   8
LADYSMITH      CLOUDY    20  17  89 N16G22    29.88R WCI   6
EAU CLAIRE     NOT AVBL
MENOMONIE      CLOUDY    21  16  81 NW16      29.91R WCI   7
NEW RICHMOND   CLOUDY    17  11  80 N16       29.96R WCI   1
OSCEOLA        CLOUDY    17  11  79 N13       30.00R WCI   3
$$

WIZ003>005-009-010-017-018-231500-
NORTH CENTRAL WISCONSIN

CITY           SKY/WX    TMP DP  RH WIND       PRES   REMARKS
MANITOWISH WTR CLOUDY    16  16 100 N12G17    29.82R FOG     WCI   3
ARBOR VITAE    LGT SNOW  19  17  92 N14G22    29.79R WCI   6
WOODRUFF       LGT SNOW  19  17  92 N14G22    29.79R WCI   6
RHINELANDER    MIX PCPN  18  15  88 N10G24    29.77R WCI   6
EAGLE RIVER    LGT SNOW  18  16  95 N17G23    29.76R WCI   2
LAND O LAKES   CLOUDY    18  16  93 N14G28    29.78R FOG     WCI   4
PHILLIPS       CLOUDY    17  15  94 N12G21    29.83R WCI   4
TOMAHAWK       CLOUDY    17  15  88 NW13G20   29.79R WCI   4
MEDFORD        CLOUDY    19  16  90 N17       29.78R WCI   4
MERRILL        CLOUDY    19  16  87 N17       29.78R WCI   4
$$

WIZ029-030-035-036-043>047-231500-
CENTRAL WISCONSIN

CITY           SKY/WX    TMP DP  RH WIND       PRES   REMARKS
WAUSAU         CLOUDY    20  16  84 N15G21    29.75R WCI   6
MOSINEE        CLOUDY    19  18  93 NW18G28   29.77R WCI   4
MARSHFIELD     CLOUDY    21  18  88 N16G25    29.77R WCI   7
STEVENS POINT  CLOUDY    21  18  89 NW14      29.75R WCI   8
WAUPACA        CLOUDY    27  21  77 NW13      29.74R WCI  16
WAUTOMA        FLURRIES  24  20  84 NW10G18   29.76R WCI  14
WISC RAPIDS    NOT AVBL
CAMP DOUGLAS   NOT AVBL
$$

WIZ011>013-019>022-031-037>040-048>050-231500-
NORTHEAST WISCONSIN

CITY           SKY/WX    TMP DP  RH WIND       PRES   REMARKS
ANTIGO         CLOUDY    19  17  91 N24G30    29.71R FOG     WCI   2
SHAWANO        CLOUDY    27  20  76 N7        29.72R WCI  19
OCONTO         CLOUDY    25  20  80 N10G16    29.69R WCI  15
STURGEON BAY   FLURRIES  24  21  88 N21       29.66R WCI   9
GREEN BAY      FLURRIES  26  21  81 N13       29.70R WCI  15
MANITOWOC      LGT SNOW  26  23  88 N20       29.68R VSB 1   WCI  12
APPLETON       LGT SNOW  25  19  80 N14G22    29.69R WCI  13
CLINTONVILLE   CLOUDY    27  19  74 N10G16    29.71R WCI  17
OSHKOSH        LGT SNOW  26  22  84 NW14      29.71R FOG     WCI  14
$$

WIZ032>034-041-042-053>061-231500-
SOUTHWEST WISCONSIN

CITY           SKY/WX    TMP DP  RH WIND       PRES   REMARKS
LA CROSSE      CLOUDY    26  21  81 NW18      29.86R WCI  13
SPARTA         CLOUDY    24  21  91 NW13G22   29.85R WCI  12
VIROQUA        CLOUDY    24  23  98 N15G26    29.80R WCI  11
BOSCOBEL       FLURRIES  28  22  78 NW7       29.84R WCI  21
PRAIRIE DU CHI FLURRIES  28  23  81 NW9       29.84R WCI  19
PLATTEVILLE    CLOUDY    28  24  87 NW15G23   29.79R WCI  16
$$

WIZ056-057-062-063-064-067-068-231500-
SOUTH CENTRAL WISCONSIN

CITY           SKY/WX    TMP DP  RH WIND       PRES   REMARKS
REEDSBURG      CLOUDY    25  21  86 NW16G22   29.77R WCI  12
BARABOO/DELLS  LGT SNOW  25  21  87 NW8       29.76R WCI  16
LONE ROCK      CLOUDY    27  21  78 NW13G21   29.81R WCI  16
MINERAL POINT  FLURRIES  28  27  93 NW17G23   29.77R WCI  16
MADISON        FLURRIES  26  20  77 N16G26    29.75R WCI  14
MIDDLETON      CLOUDY    28  23  79 NW20      29.75R WCI  15
WATERTOWN      CLOUDY    27  24  89 NW13G23   29.70R WCI  16
MONROE         CLOUDY    28  25  86 N13G22    29.73R WCI  18
JANESVILLE     CLOUDY    28  28 100 NW16G22   29.72R WCI  17
$$

WIZ051-052-058>065-066-070>072-231500-
SOUTHEAST WISCONSIN

CITY           SKY/WX    TMP DP  RH WIND       PRES   REMARKS
MILWAUKEE      CLOUDY    30  26  85 NW12G22   29.67R WCI  20
WAUKESHA       CLOUDY    27  25  93 NW15G22   29.68R WCI  15
MILWAUKEE/TIMM CLOUDY    28  23  80 NW15G23   29.68R WCI  17
RACINE         CLOUDY    30  27  88 NW7       29.69R WCI  23
BURLINGTON     CLOUDY    29  25  85 NW8       29.69R WCI  21
KENOSHA        CLOUDY    30  26  85 NW8G18    29.68R WCI  22
FOND DU LAC    CLOUDY    27  21  78 NW14      29.71R WCI  16
SHEBOYGAN      CLOUDY    27  23  85 N20G28    29.67R WCI  13
WEST BEND      CLOUDY    28  25  86 N17G23    29.67R WCI  16
JUNEAU         CLOUDY    26  21  83 NW16      29.71R WCI  13
$$

LSZ147-162-231500-
LAKE SUPERIOR

STATION/POSITION TIME  TEMP    WIND        PRES    WAVE
                       AIR SEA DIR/SP/G            HT/PER
                 (UTC) (F)     (DEG/KT/KT) (MB)    (FT/S)
DEVILS ISLAND    1300   18     360/ 17/ 20 1015.9R
SAXON HARBOR     1330   21     360/ 15/ 17 1013.9R
$$

LMZ867-665-643>646-231500-
LAKE MICHIGAN

STATION/POSITION TIME  TEMP    WIND        PRES    WAVE
                       AIR SEA DIR/SP/G            HT/PER
                 (UTC) (F)     (DEG/KT/KT) (MB)    (FT/S)
NORTHPORT PIER   1340   24     350/  7/ 12 1004.4R
KEWAUNEE LAKESHO 1330   25     350/ 11/ 15 1003.5R
SHEBOYGAN LAKESH 1300   28     330/ 19/ 23 1004.0R
PORT WASHINGTON  1340   28     320/ 11/ 17 1005.8R
MILWAUKEE LAKESH 1330   28     320/ 10/ 13   N/A
KENOSHA   LAKESH 1300   29     310/ 10/ 16 1004.4
$$

TC  - TEMPERATURE IN CELSIUS
VSB - VISIBILITY IN STATUTE MILES
WCI - WIND CHILL INDEX
HX  - HEAT INDEX





USA.gov is the U.S. government's official web portal to all federal, state and local government web resources and services.